ARIANE 3 DEB (SYLDA), 15166

Orbit data source: Space-Track

ARIANE 3 DEB (SYLDA), 15166 is space debris in HEO originally from a launch on Sat, 04 Aug 1984 UTC launched from the French Guiana (FRGUI). Debris objects in space refer to the collection of defunct objects orbiting the Earth. Examples of debris include non-operational satellites, rocket bodies, and fragments generated from explosions, collisions, or faulty payload assembly.

Loading next visibility...
Identifier
15166, 1984-081D
Orbit
HEO
Country
Flag of FRFR
Related business
Manufacturer
Ae/LesM
Mission
Spacecraft
Bus & Motor
SYLDA, Unknown motor
Mass
150 kg wet, 150 kg dry
Launch date (UTC)
1984-08-04 (42 years ago)
Launch vehicle
Unknown
Launch site
French Guiana (FRGUI)
Object type
Payload
Rocket body
Debris
Shape & HBR
Unknown
Radar Cross Section
Large (>1 m²)

Expand to show TLE details & history
Last TLE update: 2 days ago

TLE from 2 days ago
0 ARIANE 3 DEB (SYLDA)
1 15166U 84081D   26171.12815858  .00000187  00000-0  40934-2 0  9993
2 15166   6.7144 246.0522 7010206 164.2668 240.5985  2.42917049276256
Epoch: 2026-06-20T03:04Z
TLE epoch observation values (Epoch: 2026-06-20T03:04:32.901Z)
Latitude
-0°
Longitude
-68.34241°
Altitude
30,163.37 km
Speed
2.183 km/s
True Right ascension
16h 24m 34s
True Declination
0° 00' 00"
Sunlit
Object was in daylight at epoch
Visualization orbit readout
Latitude
Unknown
Longitude
Unknown
Altitude
Unknown
Speed
Unknown
Apparent Right ascension
Unknown
Apparent Declination
Unknown
Sunlit
N/A
Visualization observer readout
Local Sidereal Time
00:54:28
Azimuth
Unknown
Elevation
Unknown
Doppler factor
Unknown
Orbital elements
Apogee altitude
33,392.959 km
Perigee altitude
612.218 km
Semi-major axis
23,380.726 km
Eccentricity
0.70102
Inclination
6.7144°
RAAN
246.0522°
Arg. of periapsis
164.2668°
True anomaly
195.80246°
Mean anomaly
240.5985°
Eccentric anomaly
216.63252°
Mean motion
0.60709 °/min
Orbital period
592.99 mins
BSTAR
0.0040934
Loading maneuver chart data...
Computing Atmospheric mass density...
Loading historical data...
Loading historical data...
Loading historical data...
Loading historical data...
Loading historical data...
Loading historical data...
Loading historical data...

Documentation

Showing up to 5 results
|